Temp
72 72 72 71 71 70 69 68 69 69 69 70 70 71 71 70 67 67 67 67 67 67 66 64 63 67 68 69 68 68 63 62 59 60 62 63 63 63 63 63 64 63 62
74 73 73 71 70 69 69 68 69 69 70 70 71 71 70 70 66 66 66 65 65 64 62 63 62 63 63 68 66 66 65 63 61 59 61 61 61 62 62 62 62 64 66
74 74 72 70 70 69 68 68 69 70 70 70 71 70 70 69 69 69 67 66 65 65 64 63 63 63 65 66 65 64 63 63 62 61 60 61 61 61 61 61 61 62 67
75 74 72 70 70 70 69 69 69 70 70 71 70 71 71 70 69 69 68 67 67 66 65 65 65 65 68 65 64 65 65 63 61 60 60 59 59 60 60 58 58 65 65
74 74 71 71 71 70 69 70 70 70 71 72 71 71 71 70 70 68 67 68 67 66 65 65 67 64 60 62 65 63 63 62 61 59 58 58 58 58 59 61 65 65 65
74 74 72 72 71 70 69 70 70 70 70 71 71 71 70 70 49 55 64 67 68 67 66 64 63 60 57 55 56 57 61 62 60 61 60 58 60 64 66 65 65 66 64
74 74 73 72 72 71 71 71 70 69 70 70 70 70 70 67 47 49 55 67 65 64 66 64 63 65 65 67 55 54 55 53 58 67 67 65 65 68 68 67 68 71 69
75 75 75 75 73 72 71 70 68 69 69 69 69 70 69 66 46 47 51 65 64 64 67 67 65 68 66 68 68 69 68 67 68 70 70 70 71 71 71 72 70 68 69
75 75 75 76 73 72 71 69 68 68 68 68 70 68 68 61 46 47 59 64 63 65 69 68 65 68 49 52 71 69 70 68 53 49 50 51 50 53 63 73 71 72 68
76 77 77 77 75 73 72 70 69 69 69 71 68 70 60 61 45 47 60 67 63 63 66 66 53 62 46 50 72 71 69 68 69 68 68 60 59 56 52 73 73 72 71
78 78 76 76 74 74 71 70 69 69 68 68 67 67 68 65 59 45 51 64 65 67 64 67 69 45 45 48 53 70 67 68 60 70 70 69 69 68 70 72 73 75 72
78 77 76 74 76 74 71 70 70 69 67 66 66 68 68 68 53 45 46 53 56 67 69 70 68 45 44 45 55 44 47 58 71 69 69 70 70 69 68 68 67 69 72
76 74 74 74 75 73 72 70 71 69 71 69 70 69 68 69 68 47 45 46 49 68 70 58 45 43 43 49 45 44 48 73 73 73 73 72 72 69 65 65 64 64 63
74 73 73 72 72 73 75 74 74 72 72 72 72 71 70 69 70 70 67 63 49 62 53 60 52 52 47 57 60 58 74 75 74 74 73 71 68 68 67 69 66 65 63
74 73 72 74 72 72 74 74 75 74 72 74 74 75 72 71 71 63 64 70 71 63 62 66 68 69 70 70 71 71 72 71 72 72 70 67 68 67 67 68 67 67 65
73 74 74 75 74 76 74 70 44 49 49 46 50 65 74 57 46 46 45 46 44 44 67 70 70 71 72 72 71 70 70 64 72 71 70 69 68 68 67 67 68 68 64
74 75 76 72 75 75 74 74 72 59 46 46 47 48 50 57 44 44 42 41 41 46 72 72 72 72 73 73 73 73 72 73 72 73 72 70 70 69 63 66 67 66 64
76 58 77 77 77 77 76 75 77 75 72 71 48 53 44 45 43 41 40 46 58 56 73 74 73 74 73 73 73 73 73 72 70 71 70 70 69 68 66 66 65 62 60
76 76 78 78 78 75 78 77 78 77 76 76 74 51 49 41 40 40 41 71 70 70 71 73 75 75 74 73 73 73 73 72 70 69 69 68 68 67 66 67 65 49 50
77 63 68 78 77 76 78 77 77 77 76 76 75 75 67 57 63 64 61 67 72 73 73 73 74 75 75 74 74 73 72 68 67 68 68 67 67 67 67 65 61 51 47
80 76 66 78 79 78 78 77 77 77 77 77 76 75 52 70 73 73 70 70 72 74 74 74 75 75 75 74 73 71 71 71 70 69 69 67 66 65 65 60 54 49 45
80 79 75 79 79 78 78 78 77 77 78 77 78 74 41 69 77 76 75 74 74 75 77 75 76 76 76 75 73 72 72 71 70 68 67 66 63 63 57 54 54 50 44
80 79 76 78 79 68 74 78 78 78 78 78 79 79 64 70 76 76 75 75 74 75 76 76 75 76 77 75 74 73 72 72 71 70 66 63 62 60 58 54 50 43 40
80 78 76 77 78 77 76 75 77 65 77 79 76 77 74 73 74 75 76 76 75 74 75 74 74 75 75 73 73 73 73 73 72 67 65 64 61 54 56 50 45 41 38
79 76 75 74 75 74 74 75 76 76 76 77 77 75 76 75 75 76 76 76 75 74 73 73 74 73 73 72 72 71 60 42 63 56 65 63 55 54 52 49 42 39 36
77 73 72 73 73 72 73 73 75 74 74 75 76 76 76 75 74 74 74 74 73 73 73 73 72 71 71 71 70 55 39 40 48 46 62 57 52 48 49 44 39 38 37
MSLP
1006.86 1007.15 1007.50 1007.88 1008.33 1008.65 1008.87 1009.22 1009.38 1009.51 1009.67 1009.78 1009.78 1009.78 1009.72 1009.81 1010.08 1010.06 1010.02 1010.08 1010.08 1010.33 1010.59 1010.86 1011.11 1011.15 1011.37 1011.47 1011.85 1011.96 1012.56 1013.25 1014.24 1015.55 1015.73 1016.73 1017.60 1018.25 1019.15 1019.85 1020.40 1020.97 1021.53
1006.71 1007.08 1007.41 1007.84 1008.29 1008.57 1008.83 1009.20 1009.39 1009.40 1009.62 1009.77 1009.80 1009.80 1009.86 1010.02 1010.32 1010.28 1010.24 1010.37 1010.52 1010.66 1010.69 1011.07 1011.40 1011.51 1011.76 1011.85 1012.35 1012.70 1013.25 1013.93 1014.34 1015.50 1016.39 1017.21 1017.98 1018.93 1019.45 1020.32 1020.94 1021.34 1021.71
1006.68 1007.00 1007.38 1007.79 1008.11 1008.44 1008.82 1009.18 1009.36 1009.46 1009.56 1009.78 1009.84 1009.83 1009.97 1010.19 1010.30 1010.45 1010.59 1010.67 1010.75 1010.91 1011.00 1011.27 1011.53 1011.88 1012.08 1012.47 1012.88 1013.35 1013.96 1014.72 1015.21 1015.86 1016.82 1017.58 1018.56 1019.41 1020.08 1020.76 1021.34 1021.74 1021.81
1006.59 1006.91 1007.30 1007.70 1008.02 1008.40 1008.87 1009.17 1009.36 1009.44 1009.55 1009.72 1009.91 1010.03 1010.21 1010.45 1010.65 1010.78 1010.92 1010.97 1010.97 1011.16 1011.40 1011.51 1011.76 1012.06 1012.20 1012.75 1013.30 1013.73 1014.25 1015.10 1015.64 1016.58 1017.36 1018.15 1018.92 1019.96 1020.41 1020.85 1021.51 1021.68 1022.14
1006.47 1006.86 1007.34 1007.67 1008.09 1008.52 1009.00 1009.25 1009.42 1009.52 1009.67 1009.80 1010.00 1010.21 1010.45 1010.67 1010.87 1011.14 1011.31 1011.22 1011.21 1011.42 1011.69 1011.94 1012.14 1012.52 1012.97 1013.34 1013.66 1014.29 1014.78 1015.41 1016.04 1016.84 1017.50 1018.32 1019.26 1019.92 1020.15 1020.57 1020.82 1021.42 1022.04
1006.41 1006.79 1007.30 1007.63 1008.04 1008.46 1008.96 1009.32 1009.57 1009.68 1009.85 1009.95 1010.08 1010.29 1010.67 1011.05 1011.55 1011.68 1011.55 1011.55 1011.56 1011.62 1011.84 1012.38 1012.86 1013.21 1013.61 1014.03 1014.42 1014.84 1015.00 1015.61 1016.19 1016.66 1017.46 1018.20 1018.94 1019.28 1019.77 1020.19 1020.70 1020.83 1021.44
1006.33 1006.77 1007.19 1007.65 1008.00 1008.41 1008.82 1009.23 1009.61 1009.90 1010.11 1010.18 1010.33 1010.52 1010.83 1011.47 1012.01 1012.16 1012.12 1011.90 1012.07 1012.19 1012.24 1012.74 1013.19 1013.64 1013.94 1014.53 1015.04 1015.43 1015.92 1016.35 1016.52 1016.27 1016.83 1017.70 1018.31 1018.70 1019.22 1019.86 1020.06 1020.20 1020.55
1006.13 1006.53 1007.04 1007.49 1007.96 1008.46 1008.81 1009.16 1009.63 1009.94 1010.17 1010.41 1010.57 1010.85 1011.19 1011.78 1012.33 1012.36 1012.38 1012.46 1012.51 1012.57 1012.66 1013.06 1013.24 1013.74 1014.33 1014.66 1015.25 1015.56 1016.25 1016.80 1016.99 1016.69 1016.86 1017.12 1017.53 1018.25 1018.71 1019.07 1019.74 1020.39 1021.04
1005.78 1006.25 1006.79 1007.25 1007.86 1008.36 1008.75 1009.19 1009.60 1009.90 1010.25 1010.52 1010.75 1011.04 1011.41 1012.23 1012.64 1012.70 1012.66 1012.85 1012.92 1012.94 1013.15 1013.63 1014.02 1014.33 1014.81 1015.19 1015.20 1015.67 1016.16 1016.91 1017.72 1017.74 1017.81 1018.14 1018.47 1018.79 1018.77 1019.10 1019.31 1019.53 1020.28
1005.39 1005.98 1006.56 1007.00 1007.57 1008.15 1008.63 1009.17 1009.64 1009.93 1010.21 1010.44 1010.92 1011.12 1011.71 1012.45 1012.84 1012.95 1012.78 1012.97 1013.23 1013.33 1013.77 1014.34 1014.58 1014.89 1015.31 1015.54 1015.42 1015.72 1016.07 1016.69 1017.05 1017.53 1017.96 1018.22 1018.73 1019.38 1019.55 1018.75 1019.11 1019.18 1019.83
1005.12 1005.83 1006.47 1006.93 1007.37 1007.90 1008.61 1009.23 1009.62 1009.91 1010.27 1010.54 1011.04 1011.54 1011.84 1012.37 1013.07 1013.21 1013.26 1013.48 1013.58 1013.66 1014.26 1014.64 1015.13 1015.57 1015.93 1016.16 1016.16 1016.06 1016.20 1016.56 1017.13 1017.34 1017.82 1018.31 1018.62 1019.13 1019.21 1019.26 1019.16 1019.09 1019.51
1004.83 1005.57 1006.23 1006.80 1007.16 1007.84 1008.40 1009.04 1009.58 1009.95 1010.32 1010.70 1011.01 1011.40 1011.88 1012.43 1013.02 1013.45 1013.65 1013.70 1013.95 1013.89 1014.24 1014.72 1015.33 1015.90 1016.26 1016.44 1016.39 1016.54 1016.69 1016.81 1017.00 1017.30 1017.48 1017.80 1018.19 1018.81 1019.35 1019.62 1020.04 1020.25 1020.47
1004.53 1005.23 1005.96 1006.61 1007.10 1007.67 1008.19 1008.75 1009.32 1009.92 1010.06 1010.45 1010.70 1011.07 1011.60 1012.16 1012.84 1013.55 1013.87 1013.91 1014.16 1014.30 1014.53 1014.99 1015.53 1016.09 1016.49 1016.70 1016.83 1016.91 1016.89 1016.77 1016.80 1016.98 1017.30 1017.87 1018.44 1019.24 1019.92 1020.42 1020.90 1021.22 1021.54
1004.09 1004.89 1005.64 1006.30 1006.94 1007.50 1007.94 1008.45 1008.73 1009.32 1009.69 1009.98 1010.24 1010.66 1011.35 1011.98 1012.41 1013.10 1013.73 1014.24 1014.49 1014.60 1014.97 1015.46 1015.72 1015.93 1016.21 1016.39 1016.72 1016.97 1016.72 1016.77 1016.79 1016.87 1017.31 1018.17 1019.08 1019.58 1019.95 1020.35 1020.70 1021.33 1021.88
1003.56 1004.41 1005.23 1005.82 1006.50 1007.14 1007.57 1008.22 1008.44 1008.69 1009.01 1009.50 1009.91 1010.27 1010.78 1011.30 1011.99 1012.58 1013.12 1013.59 1013.93 1014.29 1014.88 1015.23 1015.37 1015.49 1015.67 1015.86 1016.15 1016.40 1016.63 1016.90 1016.85 1017.15 1017.67 1018.28 1018.74 1019.32 1019.93 1020.45 1020.81 1021.05 1021.32
1002.88 1003.70 1004.38 1005.06 1005.87 1006.36 1007.16 1008.26 1008.94 1008.99 1009.21 1009.60 1009.79 1010.01 1010.51 1011.06 1011.78 1012.51 1013.10 1013.43 1013.74 1014.15 1014.27 1014.39 1014.53 1014.69 1014.84 1015.13 1015.49 1015.87 1016.21 1016.57 1016.56 1017.02 1017.39 1017.75 1018.17 1018.72 1019.43 1020.07 1020.40 1020.70 1021.35
1001.90 1002.79 1003.56 1004.28 1005.05 1005.61 1006.33 1006.96 1007.85 1009.28 1009.32 1009.67 1010.08 1010.42 1010.67 1010.94 1011.69 1012.24 1012.92 1013.49 1013.72 1013.99 1013.49 1013.57 1013.61 1013.89 1014.11 1014.45 1014.79 1015.07 1015.29 1015.69 1016.17 1016.47 1016.79 1017.20 1017.73 1018.30 1019.60 1019.64 1020.12 1020.65 1021.18
1001.15 1002.01 1002.67 1003.36 1004.03 1004.74 1005.45 1006.07 1006.67 1007.39 1008.28 1009.09 1009.93 1010.22 1010.64 1011.08 1011.52 1012.18 1012.82 1013.34 1014.11 1014.06 1013.04 1012.83 1012.94 1013.14 1013.44 1013.75 1014.12 1014.44 1014.82 1015.34 1015.84 1016.07 1016.49 1016.95 1017.46 1017.96 1018.59 1019.12 1019.88 1020.63 1021.55
1000.36 1001.21 1001.78 1002.46 1003.25 1003.90 1004.62 1005.25 1005.74 1006.24 1006.89 1007.51 1008.54 1010.06 1010.50 1011.15 1011.54 1012.03 1012.32 1012.00 1012.17 1012.32 1012.30 1012.18 1012.17 1012.35 1012.73 1013.13 1013.47 1013.86 1014.24 1014.69 1015.21 1015.73 1016.19 1016.70 1017.18 1017.62 1018.17 1018.93 1019.97 1021.36 1022.52
999.56 1000.08 1000.86 1001.58 1002.48 1003.30 1003.79 1004.26 1004.72 1005.24 1005.86 1006.50 1007.40 1008.12 1009.40 1010.75 1011.06 1011.30 1011.37 1011.05 1010.78 1010.80 1010.99 1011.18 1011.41 1011.72 1011.98 1012.36 1012.73 1013.19 1013.61 1014.21 1014.79 1015.08 1015.31 1015.80 1016.40 1017.05 1017.59 1018.68 1020.02 1021.55 1022.61
998.79 999.79 1000.22 1000.84 1001.39 1002.02 1002.68 1003.31 1003.84 1004.39 1004.88 1005.49 1006.25 1007.14 1007.64 1008.61 1008.76 1009.06 1009.45 1009.64 1009.68 1009.70 1009.89 1010.25 1010.51 1010.83 1011.14 1011.48 1011.91 1012.32 1012.56 1012.92 1013.52 1014.05 1014.63 1015.49 1016.07 1016.36 1017.18 1018.12 1019.14 1020.07 1021.23
997.90 998.61 999.83 999.84 1000.25 1000.92 1001.40 1002.15 1002.88 1003.44 1003.89 1004.40 1005.19 1006.54 1007.35 1007.87 1007.37 1007.50 1007.74 1008.02 1008.38 1008.59 1008.78 1009.17 1009.42 1009.67 1009.96 1010.27 1010.72 1011.16 1011.57 1012.00 1012.50 1012.97 1013.57 1014.31 1015.23 1016.12 1017.36 1018.48 1019.46 1020.75 1021.60
997.15 997.83 998.78 999.25 999.68 1000.32 1000.83 1001.03 1001.66 1002.27 1002.76 1003.34 1003.99 1004.97 1006.55 1006.49 1006.31 1006.35 1006.46 1006.80 1007.29 1007.65 1007.99 1008.29 1008.55 1008.74 1009.00 1009.30 1009.72 1010.05 1010.28 1010.41 1011.02 1012.01 1012.77 1013.64 1014.54 1015.77 1016.58 1017.74 1019.17 1020.62 1021.74
996.33 997.04 997.73 998.39 998.76 999.21 1000.00 1000.69 1000.59 1000.95 1001.46 1002.06 1002.80 1003.36 1004.11 1004.49 1004.53 1004.66 1005.22 1005.74 1006.22 1006.64 1006.99 1007.20 1007.41 1007.52 1007.82 1008.28 1008.62 1008.94 1009.20 1009.61 1010.18 1011.10 1011.96 1012.72 1013.90 1015.35 1016.18 1017.44 1018.84 1020.37 1022.03
995.86 996.98 997.45 997.73 998.15 998.86 999.16 999.41 1000.12 1000.48 1000.63 1001.03 1001.54 1002.19 1002.65 1003.20 1003.42 1003.49 1004.06 1004.67 1004.93 1005.36 1005.82 1006.27 1006.52 1006.64 1006.90 1007.18 1007.40 1007.76 1008.16 1009.01 1009.43 1010.10 1011.09 1012.04 1013.57 1014.85 1016.07 1017.32 1018.92 1020.47 1021.80
995.53 996.47 997.56 997.89 998.03 998.48 998.97 999.22 998.85 999.90 1000.04 1000.17 1000.55 1000.96 1001.32 1001.78 1002.16 1002.57 1002.86 1003.49 1004.18 1004.39 1004.70 1005.08 1005.41 1005.72 1005.91 1006.15 1006.55 1007.01 1007.88 1008.69 1009.54 1010.13 1010.76 1012.05 1013.18 1014.63 1015.80 1016.86 1018.76 1020.26 1021.26
Wind_Speed
7 6 6 6 6 5 5 5 5 6 5 4 3 3 2 5 5 4 4 4 4 4 3 5 5 8 5 6 6 7 8 9 10 7 8 14 14 12 10 9 8 7 5
7 6 6 6 6 6 5 5 5 6 5 4 4 4 4 5 5 4 4 4 5 5 6 6 7 7 7 10 7 10 9 9 12 14 10 10 10 11 11 10 6 4 4
7 6 6 6 6 6 6 6 5 6 6 5 4 5 5 5 6 5 6 5 6 6 7 7 8 9 11 9 9 9 9 8 9 10 7 7 6 8 8 5 5 3 2
7 6 7 6 6 6 6 6 6 6 6 6 5 5 6 6 6 7 7 6 6 7 7 7 9 10 12 12 9 12 11 10 10 8 9 8 9 5 5 5 3 4 5
8 7 7 7 6 7 7 6 6 7 6 6 6 6 6 5 5 7 7 7 7 8 7 8 8 9 11 9 9 9 11 9 9 9 9 10 7 6 7 3 6 6 6
8 8 8 8 8 9 8 7 7 7 6 6 7 7 7 5 7 9 7 7 7 7 8 8 10 11 11 13 12 11 8 12 11 9 10 11 10 7 7 8 7 8 6
9 9 8 9 9 9 9 8 7 6 5 5 5 5 6 6 5 8 6 6 7 6 9 9 8 8 12 13 14 14 13 13 6 10 13 10 11 11 10 10 9 7 8
10 10 9 9 9 9 9 8 6 5 6 5 5 5 5 5 4 7 5 7 6 6 9 12 9 11 12 13 14 13 11 10 7 5 8 9 8 11 10 7 9 10 10
11 11 11 11 10 9 9 7 5 6 6 4 4 6 7 5 4 8 8 6 6 7 9 10 9 12 9 10 12 12 10 7 7 8 10 9 6 8 8 9 9 9 7
12 12 12 12 11 10 9 8 5 6 6 4 5 6 8 8 4 5 7 7 8 5 9 10 4 11 9 4 7 6 8 7 8 7 7 9 7 6 5 3 8 7 7
12 12 11 10 11 11 10 7 7 7 7 6 7 5 7 9 6 3 7 5 6 9 7 8 5 9 8 6 5 5 5 8 7 7 7 6 7 8 5 3 3 3 5
12 12 12 10 8 9 10 8 8 8 8 7 7 6 5 6 6 4 3 5 7 8 9 7 8 8 7 5 3 8 10 8 7 7 6 6 6 6 5 5 6 6 4
12 13 12 11 9 9 10 9 8 8 7 7 6 5 5 5 6 8 6 7 4 6 4 7 11 6 7 5 6 8 8 5 6 6 6 6 6 7 9 10 11 13 13
13 12 12 12 10 9 8 8 8 8 7 7 7 7 6 5 5 6 6 5 6 5 7 5 6 6 5 6 5 5 3 4 5 5 6 7 7 8 8 8 9 9 9
14 12 12 10 12 10 9 7 8 9 9 8 7 8 8 8 8 9 9 8 7 7 8 6 5 5 5 5 4 5 4 5 6 5 7 8 8 8 7 7 8 7 6
14 12 11 11 11 10 10 7 7 3 7 2 4 8 8 3 13 13 10 9 12 15 5 6 6 7 7 7 6 6 6 6 6 7 8 9 9 9 9 8 7 6 8
15 13 11 11 11 11 11 10 9 3 4 7 7 9 7 9 12 13 11 11 12 10 7 7 8 8 8 8 7 7 7 7 7 7 8 9 9 9 9 9 8 8 8
16 14 13 12 12 12 12 11 10 10 10 9 7 8 10 8 10 10 13 12 5 6 8 8 9 8 8 8 8 9 8 7 8 8 8 9 9 10 11 10 9 9 9
15 13 13 12 12 12 11 12 11 11 10 10 8 5 7 6 7 11 17 10 10 11 10 10 9 9 8 8 9 9 10 9 8 8 8 8 9 10 10 9 7 7 8
15 15 14 12 12 12 12 12 11 12 11 10 10 10 9 8 9 9 10 11 11 11 11 11 11 10 10 9 9 9 9 8 9 9 10 11 11 10 10 11 11 10 9
13 13 15 13 13 14 13 12 11 11 11 10 11 11 13 13 13 12 11 12 12 11 12 11 11 10 10 10 10 9 10 11 11 11 10 9 10 11 11 10 12 12 13
13 12 14 15 13 14 13 13 12 12 12 11 11 9 12 12 11 11 12 12 13 13 11 11 11 11 11 11 11 12 11 11 11 12 12 12 11 12 11 13 14 12 12
13 14 14 13 13 11 11 14 13 13 13 12 12 10 10 12 12 12 12 12 12 11 11 11 11 11 11 11 11 12 12 13 12 11 12 12 13 13 14 14 14 12 11
13 14 14 13 13 13 14 13 13 15 14 13 12 12 12 12 13 14 13 11 11 11 11 12 12 14 12 11 10 11 11 11 10 13 17 14 14 15 15 15 13 15 11
11 10 11 11 12 12 11 14 13 13 13 13 12 11 11 11 12 12 11 11 11 11 13 11 11 14 17 18 16 16 12 10 14 12 14 17 18 22 18 14 15 13 12
11 10 8 9 9 9 11 12 13 13 14 13 13 13 12 12 12 11 11 11 10 10 12 10 12 17 17 15 17 13 11 13 11 15 15 15 16 14 15 18 20 12 13
Wind_Direction
170 166 161 158 162 140 135 145 147 140 134 147 151 153 122 102 96 101 118 146 167 142 125 104 128 157 137 130 113 106 86 102 108 115 108 115 114 116 118 112 119 114 142
163 166 166 158 162 151 147 151 158 144 142 157 167 155 139 113 96 99 86 122 127 118 113 113 114 123 115 121 107 104 104 110 115 129 117 118 115 113 113 118 128 124 156
161 168 152 155 161 157 150 159 152 148 146 155 168 155 136 116 106 96 99 100 113 122 128 125 129 126 132 130 119 112 109 113 114 118 115 109 102 114 109 99 110 108 156
162 168 150 154 149 148 148 157 156 146 147 151 151 142 129 118 109 112 107 99 103 108 106 123 134 139 139 130 124 123 122 125 114 117 121 114 118 104 113 132 122 152 145
156 158 139 135 128 132 137 145 142 134 134 140 143 139 129 120 122 117 112 105 107 110 116 112 122 122 110 115 126 125 127 121 121 125 124 120 127 143 148 153 153 146 127
157 151 141 133 135 135 136 136 133 129 134 135 141 145 140 119 126 128 125 119 108 115 110 105 109 104 103 102 97 100 134 132 128 129 136 145 152 157 150 163 157 158 133
162 154 148 141 140 142 141 137 134 133 137 135 135 144 140 124 155 133 130 119 110 116 118 120 108 117 132 119 101 104 95 86 94 148 143 155 162 167 155 169 170 159 122
168 161 154 148 145 145 149 142 141 140 143 132 129 137 130 115 129 136 140 106 110 125 126 124 124 130 127 133 132 130 127 135 135 134 138 146 151 160 167 158 138 115 115
172 169 165 157 153 156 152 146 139 143 141 147 115 129 130 119 127 139 132 115 113 135 132 129 117 119 114 126 129 129 131 127 85 66 74 89 98 138 141 144 152 151 136
177 176 173 170 167 168 158 149 136 136 136 137 119 125 122 130 164 145 148 141 134 122 110 121 85 110 103 90 115 139 142 142 141 134 114 93 121 118 147 197 164 172 139
176 176 175 175 178 173 159 152 146 137 129 125 116 115 134 139 158 149 127 118 127 125 128 149 125 113 118 92 70 117 111 135 123 137 126 117 132 145 163 143 158 182 157
173 175 176 175 179 170 167 154 148 145 136 133 133 136 137 144 133 163 180 146 153 144 149 142 133 139 151 123 118 119 118 132 136 140 137 127 123 125 117 108 94 88 59
175 175 175 174 175 176 174 165 157 162 156 156 155 146 144 149 150 135 141 149 126 148 142 92 95 118 121 124 105 137 156 151 145 149 145 133 123 111 117 113 101 97 81
178 179 175 175 174 176 180 179 175 176 173 172 170 159 152 157 162 160 159 144 123 100 116 89 85 95 65 101 142 164 179 174 173 168 153 130 131 144 136 137 131 125 111
180 177 179 182 183 175 188 182 191 192 186 180 186 178 171 174 178 173 169 171 170 143 134 143 153 163 164 163 165 167 173 175 182 159 156 157 155 157 156 160 157 164 139
182 179 180 182 185 186 179 176 54 4 202 160 164 190 189 135 147 165 168 141 136 155 164 175 183 190 194 188 189 182 189 189 181 174 172 169 170 174 166 170 175 173 151
184 183 180 184 184 187 190 193 194 145 158 199 184 195 219 180 171 171 153 137 157 165 207 197 200 199 204 204 203 202 200 200 182 188 184 181 177 179 170 176 175 169 157
186 173 182 192 190 191 194 196 202 200 201 200 202 209 208 185 175 150 143 135 150 222 222 215 215 213 213 211 209 210 209 193 199 194 191 187 186 178 184 182 180 170 159
183 183 190 187 192 195 196 203 206 208 209 208 179 186 149 138 138 148 168 205 207 210 215 225 228 224 217 214 215 214 210 205 200 195 193 189 189 190 190 184 168 128 117
190 182 182 184 183 192 200 206 209 212 212 213 205 208 164 156 189 189 197 210 215 215 214 218 222 224 224 221 216 214 211 199 198 198 194 190 188 192 185 168 151 137 116
193 182 189 185 190 195 198 203 207 209 213 215 217 210 177 192 204 208 203 209 216 217 218 218 220 221 222 220 218 212 210 209 207 204 198 197 189 185 180 163 155 142 131
192 188 192 199 192 195 199 200 205 209 214 215 218 203 168 211 215 214 215 214 215 219 217 216 221 222 220 217 212 213 215 215 211 204 199 189 180 176 158 155 152 138 126
191 190 192 200 202 205 194 200 203 209 215 219 220 209 185 208 219 221 219 217 216 218 217 219 221 224 222 219 217 215 216 214 208 201 194 181 180 175 166 158 146 135 133
190 193 193 200 200 196 204 214 210 206 210 214 215 215 206 208 209 215 219 217 215 217 218 217 221 223 219 218 215 218 220 219 200 191 182 179 177 167 159 149 142 132 131
180 193 202 197 200 205 203 203 215 222 211 215 212 213 211 216 217 215 216 219 214 214 218 219 222 224 223 219 215 213 208 175 192 178 178 174 162 162 154 140 138 132 136
178 174 197 206 207 206 219 219 207 218 218 213 216 216 215 210 215 218 212 213 220 217 217 215 223 225 223 222 220 205 154 163 164 168 162 161 155 154 150 138 134 134 135